This demonstration page uses our WeatherBlox Daily Observations layout. Learn more.

Left ArrowRight Arrow

38.20091, -84.87328

Hourly Observations for July 14, 2020

Temp ( °F °C ) Dew Point ( °F °C ) Humidity (%) Winds ( mph kmh ) Pressure ( in mb ) Visibility ( mi km ) Precip ( " mm )
12:53 am 00:53 Clear 66 18.9 62 16.7 87 87 Calm 29.98 1015 10 16 0.00 0.00
1:53 am 01:53 Clear 63 17.2 60 15.6 90 90 Calm 29.97 1015 10 16 0.00 0.00
2:53 am 02:53 Clear 64 17.8 61 16.1 90 90 Calm 29.96 1015 10 16 0.00 0.00
3:53 am 03:53 Clear 63 17.2 59 15 87 87 Calm 29.96 1015 10 16 0.00 0.00
4:53 am 04:53 Clear 63 17.2 59 15 87 87 Calm 29.96 1015 10 16 0.00 0.00
5:53 am 05:53 Clear 62 16.7 58 14.4 86 86 Calm 29.98 1015 10 16 0.00 0.00
6:53 am 06:53 Sunny 60 15.6 58 14.4 93 93 Calm 30.01 1016 10 16 0.00 0.00
7:53 am 07:53 Sunny 66 18.9 61 16.1 84 84 Calm 30.03 1017 10 16 0.00 0.00
8:53 am 08:53 Sunny 72 22.2 64 17.8 76 76 Calm 30.05 1018 10 16 0.00 0.00
9:53 am 09:53 Sunny 76 24.4 64 17.8 67 67 undefined N/A 30.04 1017 N/A 0.00 0.00
10:53 am 10:53 Sunny 81 27.2 62 16.7 53 53 Calm 30.03 1017 10 16 0.00 0.00
11:53 am 11:53 Mostly Sunny 82 27.8 64 17.8 55 55 SW 6 9 30.03 1017 10 16 0.00 0.00
12:53 pm 12:53 Sunny 83 28.3 61 16.1 48 48 W 5 7 30.03 1017 10 16 0.00 0.00
1:53 pm 13:53 Sunny 86 30 61 16.1 43 43 Calm 30.03 1017 10 16 0.00 0.00
2:53 pm 14:53 Sunny 87 30.6 62 16.7 43 43 SSW 7 11 30.03 1017 10 16 0.00 0.00
3:53 pm 15:53 Sunny 88 31.1 61 16.1 40 40 Calm 30.02 1017 10 16 0.00 0.00
4:53 pm 16:53 Sunny 88 31.1 64 17.8 45 45 SSW 5 7 30.01 1016 10 16 0.00 0.00
5:53 pm 17:53 Sunny 87 30.6 61 16.1 42 42 VRB 3 6 30.01 1016 10 16 0.00 0.00
6:53 pm 18:53 Sunny 86 30 60 15.6 42 42 WSW 6 9 30.01 1016 10 16 0.00 0.00
7:53 pm 19:53 Sunny 84 28.9 62 16.7 48 48 W 5 7 30.03 1017 10 16 0.00 0.00
8:53 pm 20:53 Sunny 79 26.1 63 17.2 58 58 WSW 3 6 30.02 1017 10 16 0.00 0.00
9:53 pm 21:53 Clear 72 22.2 64 17.8 76 76 Calm 30.02 1017 10 16 0.00 0.00
10:53 pm 22:53 Clear 71 21.7 63 17.2 76 76 Calm 30.04 1017 10 16 0.00 0.00
11:53 pm 23:53 Clear 68 20 62 16.7 81 81 Calm 30.03 1017 10 16 0.00 0.00

Powered by AerisWeather